Weather History for LKTB - April, 2013

Change the Weather History Date:

Wednesday, April 3, 2013

  Actual Average Record
Temperature  
Mean Temperature 34 °F -  
Max Temperature 36 °F 59 °F - ()
Min Temperature 32 °F 40 °F - ()
Degree Days  
Heating Degree Days 31    
Moisture  
Dew Point 26 °F    
Average Humidity 71    
Maximum Humidity 81    
Minimum Humidity 54    
Precipitation  
Precipitation 0.00 in 0.05 in - ()
Sea Level Pressure  
Sea Level Pressure 29.81 in    
Wind  
Wind Speed 14 mph ()    
Max Wind Speed 20 mph    
Max Gust Speed 26 mph    
Visibility 5.9 miles    
Events Rain , Snow    
T = Trace of Precipitation, MM = Missing Value Source: Averaged Metar Reports

Daily Weather History Graph

Daily Weather History Graph

Search for Another Location

Airport or City:

Trip Planner

Search our weather history database for the weather conditions in past years. The results will help you decide how hot, cold, wet, or windy it might be!

Date:

Astronomy

Apr. 03, 2013 Rise Set
Actual Time 6:26 AM CEST 7:27 PM CEST
Civil Twilight 5:54 AM CEST 7:59 PM CEST
Nautical Twilight 5:15 AM CEST 8:38 PM CEST
Astronomical Twilight 4:34 AM CEST 9:20 PM CEST
Moon 2:27 AM CEST (4/3) 11:46 AM CEST (4/3)
Length of Visible Light 14h 05m
Length of Day
13h 00m
Waning Gibbous, 47% of the Moon is Illuminated
Apr 3
Waning Gibbous
Apr 10
New
Apr 18
First Quarter
Apr 25
Full
May 2
Last Quarter

Hourly Weather History & Observations

Time (CEST) Temp. Windchill Dew Point Humidity Pressure Visibility Wind Dir Wind Speed Gust Speed Precip Events Conditions
12:00 AM 35.6 °F 27.1 °F 24.8 °F 65% 29.80 in - NNE 12.7 mph - N/A   Clear
12:30 AM 35.6 °F 27.1 °F 24.8 °F 65% 29.80 in - NNE 12.7 mph - N/A   Clear
1:00 AM 35.6 °F 26.6 °F 24.8 °F 65% 29.80 in - NNE 13.8 mph - N/A   Clear
1:30 AM 35.6 °F 25.9 °F 24.8 °F 65% 29.80 in - NNE 16.1 mph - N/A   Clear
2:00 AM 35 °F - 24 °F 54% 29.85 in 7 mi NNE 13.4 mph - -   Overcast
2:00 AM 33.8 °F 24.3 °F 24.8 °F 70% 29.80 in 6.2 mi NNE 13.8 mph - N/A   Partly Cloudy
2:30 AM 33.8 °F 24.3 °F 24.8 °F 70% 29.80 in - NNE 13.8 mph - N/A   Clear
3:00 AM 33.8 °F 25.8 °F 24.8 °F 70% 29.80 in 6.2 mi NNE 10.4 mph - N/A   Partly Cloudy
3:30 AM 33.8 °F 23.2 °F 24.8 °F 70% 29.80 in 6.2 mi NNE 17.3 mph - N/A   Overcast
3:45 AM 33.8 °F 23.5 °F 24.8 °F 70% 29.80 in 6.2 mi NNE 16.1 mph - N/A Snow Light Snow
4:00 AM 33.8 °F 23.2 °F 24.8 °F 70% 29.80 in 6.2 mi NNE 17.3 mph - N/A Snow Light Snow
4:30 AM 33.8 °F 23.5 °F 26.6 °F 75% 29.77 in 6.2 mi North 16.1 mph - N/A Snow Light Snow
5:00 AM 33.8 °F 23.5 °F 24.8 °F 70% 29.77 in 6.2 mi NNE 16.1 mph - N/A Snow Light Snow
5:30 AM 33.8 °F 23.5 °F 24.8 °F 70% 29.77 in 6.2 mi NNE 16.1 mph - N/A Snow Light Snow
6:00 AM 32.0 °F 21.6 °F 26.6 °F 80% 29.77 in 5.0 mi North 15.0 mph - N/A Snow Light Snow
6:30 AM 32.0 °F 22.5 °F 24.8 °F 75% 29.77 in 5.6 mi North 12.7 mph - N/A Snow Light Snow
7:00 AM 32.0 °F 21.6 °F 24.8 °F 75% 29.77 in 5.6 mi North 15.0 mph - N/A Snow Light Snow
7:30 AM 33.8 °F 23.9 °F 24.8 °F 70% 29.77 in 6.2 mi North 15.0 mph - N/A Snow Light Snow
8:00 AM 33 °F - 25 °F 63% 29.85 in 7 mi North 17.9 mph - - Snow Light Snow
8:00 AM 33.8 °F 23.2 °F 24.8 °F 70% 29.80 in 6.2 mi North 17.3 mph - N/A Snow Light Snow
8:30 AM 32.0 °F 21.2 °F 24.8 °F 75% 29.80 in 6.2 mi North 16.1 mph - N/A Snow Light Snow
9:00 AM 33.8 °F 23.5 °F 26.6 °F 75% 29.80 in 6.2 mi North 16.1 mph - N/A Snow Light Snow
9:30 AM 33.8 °F 23.5 °F 26.6 °F 75% 29.80 in 5.0 mi North 16.1 mph - N/A Snow Light Snow
9:43 AM 33.8 °F 24.3 °F 26.6 °F 75% 29.80 in 3.1 mi North 13.8 mph - N/A Snow Light Snow
10:00 AM 33.8 °F 23.9 °F 26.6 °F 75% 29.80 in 2.8 mi North 15.0 mph - N/A Snow Light Snow
10:30 AM 33.8 °F 23.9 °F 28.4 °F 81% 29.80 in 2.5 mi North 15.0 mph - N/A Snow Light Snow
11:00 AM 33.8 °F 24.3 °F 28.4 °F 81% 29.80 in - North 13.8 mph - N/A Rain , Snow Light Rain
11:30 AM 33.8 °F 24.3 °F 28.4 °F 81% 29.80 in 2.5 mi North 13.8 mph - N/A Rain , Snow Light Rain
11:43 AM 33.8 °F 23.9 °F 28.4 °F 81% 29.80 in 3.1 mi North 15.0 mph - N/A Rain , Snow Light Rain
12:00 PM 35.6 °F 26.6 °F 28.4 °F 75% 29.80 in 5.6 mi North 13.8 mph - N/A Rain Light Rain
12:30 PM 35.6 °F 25.9 °F 28.4 °F 75% 29.80 in 6.2 mi North 16.1 mph - N/A   Overcast
12:35 PM 35.6 °F 26.2 °F 26.6 °F 70% 29.80 in 6.2 mi North 15.0 mph 26.5 mph N/A   Overcast
1:00 PM 35.6 °F 25.9 °F 26.6 °F 70% 29.80 in 6.2 mi North 16.1 mph - N/A Rain , Snow Light Rain
1:30 PM 35.6 °F 25.9 °F 26.6 °F 70% 29.80 in 5.0 mi North 16.1 mph - N/A Snow Light Snow
2:00 PM 36 °F - 27 °F 59% 29.86 in 5 mi North 13.4 mph - - Snow Light Snow
2:00 PM 35.6 °F 25.2 °F 26.6 °F 70% 29.80 in 5.0 mi North 18.4 mph - N/A Snow Light Snow
2:30 PM 35.6 °F 24.8 °F 26.6 °F 70% 29.80 in 6.2 mi North 19.6 mph - N/A Rain , Snow Light Rain
3:00 PM 35.6 °F 25.9 °F 26.6 °F 70% 29.80 in 6.2 mi North 16.1 mph - N/A Rain , Snow Light Rain
3:30 PM 35.6 °F 25.9 °F 26.6 °F 70% 29.83 in 6.2 mi North 16.1 mph - N/A   Overcast
4:00 PM 35.6 °F 25.2 °F 24.8 °F 65% 29.83 in 6.2 mi North 18.4 mph - N/A   Overcast
4:05 PM 35.6 °F 25.5 °F 26.6 °F 70% 29.83 in 6.2 mi North 17.3 mph - N/A Snow Light Snow
4:30 PM 35.6 °F 25.5 °F 24.8 °F 65% 29.83 in 6.2 mi North 17.3 mph - N/A Snow Light Snow
5:00 PM 35.6 °F 25.5 °F 24.8 °F 65% 29.83 in 6.2 mi North 17.3 mph - N/A   Mostly Cloudy
5:18 PM 35.6 °F 25.2 °F 26.6 °F 70% 29.83 in 6.2 mi North 18.4 mph - N/A Snow Light Snow
5:30 PM 35.6 °F 25.2 °F 24.8 °F 65% 29.83 in 6.2 mi North 18.4 mph - N/A Snow Light Snow
6:00 PM 35.6 °F 25.2 °F 24.8 °F 65% 29.83 in 6.2 mi North 18.4 mph - N/A Snow Light Snow
6:30 PM 35.6 °F 26.6 °F 26.6 °F 70% 29.83 in 6.2 mi North 13.8 mph - N/A   Mostly Cloudy
7:00 PM 35.6 °F 27.1 °F 26.6 °F 70% 29.83 in 6.2 mi North 12.7 mph - N/A   Mostly Cloudy
7:30 PM 33.8 °F 24.3 °F 26.6 °F 75% 29.83 in 6.2 mi North 13.8 mph - N/A   Mostly Cloudy
8:00 PM 35 °F - 26 °F 58% 29.90 in 16 mi North 13.4 mph - -   Partly Cloudy
8:00 PM 33.8 °F 24.3 °F 26.6 °F 75% 29.83 in 6.2 mi North 13.8 mph - N/A   Overcast
8:30 PM 33.8 °F 24.8 °F 26.6 °F 75% 29.86 in 6.2 mi NNW 12.7 mph - N/A   Overcast
9:00 PM 33.8 °F 25.3 °F 26.6 °F 75% 29.86 in 6.2 mi NNW 11.5 mph - N/A   Overcast
9:30 PM 33.8 °F 24.8 °F 24.8 °F 70% 29.83 in 6.2 mi NNW 12.7 mph - N/A   Overcast
10:00 PM 33.8 °F 23.9 °F 24.8 °F 70% 29.83 in 6.2 mi NNW 15.0 mph - N/A   Overcast
10:30 PM 33.8 °F 24.3 °F 24.8 °F 70% 29.83 in 6.2 mi NNW 13.8 mph - N/A   Overcast
11:00 PM 33.8 °F 23.9 °F 24.8 °F 70% 29.83 in 6.2 mi NNW 15.0 mph - N/A   Overcast
11:30 PM 33.8 °F 24.3 °F 24.8 °F 70% 29.83 in 6.2 mi NNW 13.8 mph - N/A   Overcast